Location: Cahas Mountain Overlook
(37.0833°N, 80.1000°W)
Time: 18:22:23
(UTC-05:00)

Vanguard 3 - Pass Details

Date: 11 December 2023
Orbit: 508 x 3239 km, 33.4° (Epoch: 23 February)

Event Time Altitude Azimuth Distance (km) Brightness Sun altitude
Rises 18:56:54 0° 230° (SW) 7,188 13.0 -21.9°
Reaches altitude 10° 19:02:01 10° 226° (SW) 6,145 12.4 -22.9°
Maximum altitude 19:20:05 53° 157° (SSE) 3,099 9.9 -26.5°
Enters shadow 19:25:59 37° 107° (ESE) 3,235 9.6 -27.6°
